Regional Weather Roundup
Issued by NWS

Home | Current Version | Previous Version | Graphics & Text | Print | Product List | Glossary On
Versions: 1 2 3 4 5 6 7 8 9 10 11 12 13 14 15 16 17 18 19 20 21 22 23 24 25 26 27 28 29 30 31 32 33 34 35 36 37 38 39 40 41 42 43 44 45 46 47 48 49 50
000
ASUS45 KTFX 281704
RWRMT
MONTANA HOURLY WEATHER ROUNDUP
NATIONAL WEATHER SERVICE GREAT FALLS MT
1104 AM MDT THU AUG 28 2014

NOTE: "FAIR" INDICATES FEW OR NO CLOUDS BELOW 12000 FEET WITH NO
SIGNIFICANT WEATHER AND/OR OBSTRUCTIONS TO VISIBILITY.

* THESE STATIONS ARE NOT UNDER NWS QUALITY CONTROL. THEY DO NOT
   REPORT WEATHER SUCH AS PRECIPITATION OR FOG.

MTZ001>007-043-281800-
WEST OF THE DIVIDE
CITY           SKY/WX    TMP DP  RH WIND       PRES   REMARKS
KALISPELL      SUNNY     72  52  49 VRB3      29.98F
MISSOULA       SUNNY     70  46  42 VRB3      30.08S
BUTTE          SUNNY     70  45  41 CALM      30.19F
MULLAN PASS    SUNNY     61  46  58 SW9G16    30.17S
* LINCOLN      N/A       60  47  62 E2         N/A
* LOOKOUT PASS N/A       66  49  54 SE9G15     N/A
* POLSON       N/A       77  49  37 S3G8       N/A
* RONAN APT    SUNNY     73  48  41 SE5        N/A
* SEELEY LAKE  N/A       69  48  47 N2         N/A
* THOMP F APT  SUNNY     66  47  51 SE4        N/A
$$

MTZ008-052>055-281800-
SOUTHWEST MONTANA
CITY           SKY/WX    TMP DP  RH WIND       PRES   REMARKS
BOZEMAN        SUNNY     70  48  46 CALM      30.13F
DILLON         SUNNY     72  43  35 S6        30.17F
W YELLOWSTONE  SUNNY     63  45  52 S10       30.31F
* THREE FORKS  SUNNY     70  70 100 N/A        N/A
* BOULDER HILL N/A       65  41  42 S11        N/A
* MONIDA PASS  N/A       61  44  54 SE13       N/A
* RAYNOLDS PAS N/A       60  42  52 S17G23     N/A
* WHITEHALL    N/A       70  48  46 NW3G11     N/A
* WISE RIVER   N/A       57  45  64 NW4        N/A
$$

MTZ009>010-012-014-046-048-049-054-281800-
EAST SLOPES AND CENTRAL MONTANA
CITY           SKY/WX    TMP DP  RH WIND       PRES   REMARKS
CUT BANK       PTSUNNY   63  52  68 N13       30.02F
GREAT FALLS    PTCLDY    81  45  28 SW15G22   30.00F
HELENA         PTCLDY    72  48  43 CALM      30.08F
MALMSTROM AFB  PTCLDY    79  46  31 W9        30.01F
* CONRAD       CLOUDY    72  55  55 N7         N/A
* EAST GLACIER N/A       70  47  44 W12G18     N/A
* MONARCH      N/A       70  37  30 W16G21     N/A
* PENDROY      N/A       71  48  44 S5         N/A
* ROGERS PASS  N/A       67  40  37 SE10G15    N/A
* SAINT MARY   N/A       56  52  87 NE5G13     N/A
* SWEET GRASS  N/A       57  57 100 N12        N/A
$$

MTZ011-013-016-021-035-040-045-047-050-051-281800-
NORTH CENTRAL MONTANA
CITY           SKY/WX    TMP DP  RH WIND       PRES   REMARKS
HAVRE          SUNNY     75  50  42 W9        29.94S
LEWISTOWN      SUNNY     79  46  31 W8        30.05S
* CHESTER      N/A       73  49  43 NW5        N/A
* DENTON       N/A       79  43  28 W18G23     N/A
* GEYSER       N/A       78  43  29 W20G26     N/A
* JUDITH GAP   N/A       75  43  32 NW16G23    N/A
* LOMA         N/A       75  49  40 SW9G14     N/A
$$

MTZ017>020-022>027-061-062-281800-
NORTHEAST MONTANA
CITY           SKY/WX    TMP DP  RH WIND       PRES   REMARKS
GLASGOW        SUNNY     77  55  47 VRB5      29.89R
GLENDIVE       SUNNY     75  64  69 SE10      29.93F
JORDAN         SUNNY     81  52  37 W12       29.92S
SIDNEY         SUNNY     75  66  74 S8        29.90F
WOLF POINT     SUNNY     79  55  44 SW9       29.87F
* BEAVER HILL  N/A       78  56  47 SW7        N/A
* CIRCLE       N/A       77  56  48 SW2        N/A
* LINDSAY DVD  N/A       81  50  34 W8G13      N/A
* NAVAJO       N/A       78  52  40 SW14G19    N/A
$$

MTZ028>042-056>058-281800-
SOUTHCENTRAL AND SOUTHEAST MONTANA
CITY           SKY/WX    TMP DP  RH WIND       PRES   REMARKS
BAKER          SUNNY     79  55  44 N3        29.97S
BILLINGS       SUNNY     75  52  45 SW15      30.04S
LIVINGSTON     SUNNY     81  39  22 SW14      30.11F
MILES CITY     SUNNY     77  55  47 S8        29.95F
* LAUREL APT   SUNNY     75  48  39 SW10G17    N/A
* ROUNDUP APT  SUNNY     77  50  39 S9         N/A
* ALZADA       N/A       75  55  50 W3         N/A
* HYSHAM       N/A       74  48  40 W8G14      N/A
* LAME DEER    N/A       74  51  45 W11        N/A
* REED POINT   N/A       74  45  36 SW1G8      N/A
* ROSCOE HILL  N/A       75  34  22 NW6G23     N/A
$$

REGIONAL REPORTS...DAKOTAS
CITY           SKY/WX    TMP DP  RH WIND       PRES   REMARKS
WILLISTON      SUNNY     77  63  62 S5        29.88F
DICKINSON      PTCLDY    79  54  42 S10       29.92S
BEACH          N/A       77  57  50 S3        29.95S
CROSBY         SUNNY     81  59  47 S10       29.86S HI  81
TIOGA          SUNNY     79  59  50 SW7       29.91F
WATFORD CITY   SUNNY     81  57  44 S5        29.88S HI  81
BISMARCK       CLOUDY    72  64  76 S3        29.93F
GRAND FORKS    CLOUDY    72  64  76 S13       29.94S
FARGO          CLOUDY    72  63  73 SE12G18   29.96F
BUFFALO SD     PTCLDY    75  59  58 VRB3      29.92S
RAPID CITY     CLOUDY    70  61  73 VRB3      30.01S
$$

REGIONAL REPORTS...WYOMING/IDAHO/WASHINGTON
CITY           SKY/WX    TMP DP  RH WIND       PRES   REMARKS
GILLETTE       PTCLDY    79  52  39 N12       30.07S
SHERIDAN       SUNNY     82  43  25 N15G20    30.06S
CODY           SUNNY     77  45  32 SW3       30.14S
YELLOWSTONE LA SUNNY     57  45  64 E5        30.39F
SALMON         SUNNY     63  45  52 NW3       30.15F
MULLAN PASS    SUNNY     61  46  58 SW9G16    30.17S
SAND POINT     PTCLDY    72  54  53 W5        29.98F
SPOKANE        PTCLDY    72  50  46 S15       30.00S

$$




USA.gov is the U.S. government's official web portal to all federal, state and local government web resources and services.